User: anonymous   Login
Location: Mount Tamalpais State Park
(37.9108°N, 122.6128°W)
Time: 23:36:14
(UTC-08:00)
Language:

Cosmos 1814 Rocket - Orbit

View from above orbital plane
View from above orbital plane
View from above satellite
View from above satellite

Ground track
Ground track

The orbit data is extracted from the following two-line orbital elements,

1 17304U 87006B   14330.18886238  .00000200  00000-0  75402-4 0  2853
2 17304 074.0601 007.1751 0028606 078.7883 341.5523 14.37391786459098
Epoch (UTC): 26 November 2014 04:31:57
Eccentricity: 0.0028606
inclination: 74.0601°
perigee height: 746 km
apogee height: 787 km
right ascension of ascending node: 7.1751°
argument of perigee: 78.7883°
revolutions per day: 14.37391786
mean anomaly at epoch: 341.5523°
orbit number at epoch: 45909

The dashed part of the orbit path shows where the satellite is in the earth's shadow,  

DLR